Showing default

TJS-14, 62804

Orbit data source: Space-Track

TJS-14, 62804 is a payload satellite owned by PLA SSF (CN) in GEO that was launched on Thu, 23 Jan 2025 UTC via a CHANG ZHENG 3B launch vehicle from the Xichang Space Center, China (XSC). Payloads include a variety of satellites, spacecraft, and rockets equipped with specific instruments for various scientific and technological missions. These include communications satellites like Starlink; space stations such as the ISS; scientific satellites like the Hubble; Earth observation satellites from companies like Planet Labs, Umbra, and HawkEye 360; GPS; miniature CubeSats for education and research; and military/defense satellites.

Not visible in the next 10 days
TJS-14 details
Identifier
62804, 2025-017A
Orbit
GEO
Last TLE update2 days ago
Origin
Flag of CNPLA SSF (CN / PRC)
ManufacturerSISE
MissionOperational spacecraft
Bus & MotorFY-4?, LAE
Mass~5,000 kg wet, ~2,500 kg dry
Launch date (UTC)
2025-01-23 (4 weeks ago)
Launch vehicle
CHANG ZHENG 3B
Launch site
Xichang Space Center, China (XSC)
Object type
Payload
Rocket body
Debris
Shape & HBRUnknown
Radar Cross SectionLarge (>1 m²)

Expand to show TLE details & history

TLE from 2 days ago
0 TJS-14
1 62804U 25017A   25045.83149840  .00000113  00000-0  00000+0 0  9992
2 62804   1.9751 284.7683 0001407 201.4150 336.5901  1.00275971   377
Epoch: 2025-02-14T19:57Z
Definitive object data (Epoch: 2025-02-14T19:57:21.461Z)
Latitude0.06339°
Longitude18.38003°
Altitude35,779.446 km
Speed3.075 km/s
True Right ascension06h 51m 13s
True Declination0° 03' 48"
Sunlit
Object was in daylight at TLE epoch
Visualization TLE readout
Latitude1.85248°
Longitude-88.22909°
Altitude35,788.337 km
Speed3.075 km/s
Apparent Right ascension00h 05m 36s
Apparent Declination-3° 26' 33"
Sunlit
Object is in daylight
Visualization observer readout
Local Sidereal Time15:30:46
Azimuth65.531° ENE
Elevation-31.151°
Doppler factor1
Orbital elements
Apogee altitude35,792.423 km
Perigee altitude35,780.557 km
Semi-major axis42,164.627 km
Eccentricity0.0001407
Inclination1.9751°
RAAN284.7683°
Arg. of periapsis201.415°
True anomaly336.58369°
Mean anomaly336.5901°
Eccentric anomaly336.5869°
Mean motion0.25068 °/min
BSTARUnknown
Orbital period1436.09 mins
Loading historical data...
62804 neighbors
Authenticating...
Loading maneuver chart data...
Loading historical data...
Loading historical data...
Loading historical data...
Loading historical data...
Loading historical data...
Loading historical data...
Loading historical data...
Other satellites on launch #17 in the year 2025 (2025-01-23 UTC)

TJS-14 Visibility forecast

Observer location: undefined°, undefined

TJS-14 is not visible in the next 10 days
Span
Click to sort rows by Start time (UTC) header in descending order
Start Az.
Max El. time (UTC)
Max El. Az.
Max El.
End time (UTC)
End Az.
|